Location: Unspecified
(51.0000°N, 12.0000°E)
Time: 23:45:29
(UTC+02:00)

ISS - Visible Passes

Search period start: 22 June 2024 00:00
Search period end: 02 July 2024 00:00
Orbit: 410 x 425 km, 51.6° (Epoch: 22 June)

Date Brightness Start Highest point End Pass type
(mag) Time Alt. Az. Time Alt. Az. Time Alt. Az.
25 Jun -1.4 03:49:09 10° S 03:50:56 14° SE 03:52:44 10° ESE visible
27 Jun -2.5 03:47:48 12° SSW 03:50:24 27° SSE 03:53:18 10° E visible
28 Jun -2.0 03:00:49 16° S 03:01:57 19° SE 03:04:24 10° E visible
29 Jun -1.5 02:13:41 13° SE 02:13:41 13° SE 02:15:02 10° ESE visible
29 Jun -3.5 03:46:32 11° SW 03:49:33 51° SSE 03:52:48 10° E visible
30 Jun -3.0 02:59:14 23° SSW 03:00:46 36° SSE 03:03:52 10° E visible
01 Jul -2.6 02:11:47 25° SSE 02:11:55 25° SSE 02:14:44 10° E visible
01 Jul -3.8 03:45:01 10° WSW 03:48:20 81° SSE 03:51:41 10° ENE visible
